Petaluma, CA

9:22 AM PDT on September 28, 2016 (GMT -0700)
Petaluma

Weather History for KO69 - November, 2012

Change the Weather History Date:

Sunday, November 4, 2012

  Actual Average (KAPC) Record (KAPC)
Temperature  
Mean Temperature 62 °F 54 °F  
Max Temperature 78 °F 68 °F 83 °F (2010)
Min Temperature 46 °F 40 °F 31 °F (2013)
Degree Days  
Heating Degree Days 3    
Month to date heating degree days  
Since 1 July heating degree days  
Cooling Degree Days 0    
Month to date cooling degree days  
Year to date cooling degree days  
Growing Degree Days 12 (Base 50)    
Moisture  
Dew Point 53 °F    
Average Humidity 81    
Maximum Humidity 100    
Minimum Humidity 44    
Precipitation  
Precipitation 0.00 in - 1.60 in (1963)
Month to date precipitation  
Year to date precipitation  
Sea Level Pressure  
Sea Level Pressure 30.18 in    
Wind  
Wind Speed 2 mph (WNW)    
Max Wind Speed 10 mph    
Max Gust Speed -    
Visibility 10 miles    
Events      
T = Trace of Precipitation, MM = Missing Value Source: NWS Daily Summary

Daily Weather History Graph

Daily Weather History Graph

Search for Another Location

Airport or City:

Trip Planner

Search our weather history database for the weather conditions in past years. The results will help you decide how hot, cold, wet, or windy it might be!

Date:

Astronomy

Nov. 04, 2012 Rise Set
Actual Time 6:40 AM PST 5:07 PM PST
Civil Twilight 6:12 AM PST 5:34 PM PST
Nautical Twilight 5:41 AM PST 6:06 PM PST
Astronomical Twilight 5:10 AM PST 6:36 PM PST
Moon 9:51 PM PST (11/4) 11:26 AM PST (11/4)
Length of Visible Light 11h 21m
Length of Day
10h 26m
Waning Gibbous, 71% of the Moon is Illuminated
Nov 4
Waning Gibbous
Nov 6
Last Quarter
Nov 13
New
Nov 20
First Quarter
Nov 28
Full

Hourly Weather History & Observations

Time (PST) Temp. Dew Point Humidity Pressure Visibility Wind Dir Wind Speed Gust Speed Precip Events Conditions
1:15 AM 50.0 °F 50.0 °F 100% 30.17 in 10.0 mi WNW 4.6 mph - N/A   Clear
1:35 AM 50.0 °F 50.0 °F 100% 30.17 in 10.0 mi Calm Calm - N/A   Clear
1:55 AM 50.0 °F 50.0 °F 100% 30.17 in 10.0 mi Calm Calm - N/A   Clear
2:15 AM 50.0 °F 50.0 °F 100% 30.17 in 10.0 mi Calm Calm - N/A   Clear
2:35 AM 48.2 °F 48.2 °F 100% 30.17 in 10.0 mi Calm Calm - N/A   Clear
2:55 AM 48.2 °F 48.2 °F 100% 30.16 in 9.0 mi Calm Calm - N/A   Clear
3:15 AM 48.2 °F 48.2 °F 100% 30.16 in 10.0 mi Calm Calm - N/A   Clear
3:35 AM 48.2 °F 48.2 °F 100% 30.16 in 10.0 mi Calm Calm - N/A   Clear
3:55 AM 48.2 °F 48.2 °F 100% 30.17 in 10.0 mi Calm Calm - N/A   Clear
4:15 AM 48.2 °F 48.2 °F 100% 30.17 in 10.0 mi Calm Calm - N/A   Clear
4:35 AM 46.4 °F 46.4 °F 100% 30.17 in 9.0 mi Calm Calm - N/A   Clear
4:55 AM 48.2 °F 48.2 °F 100% 30.18 in 10.0 mi Calm Calm - N/A   Clear
5:15 AM 46.4 °F 46.4 °F 100% 30.19 in 10.0 mi Calm Calm - N/A   Clear
5:35 AM 48.2 °F 48.2 °F 100% 30.19 in 10.0 mi NW 4.6 mph - N/A   Clear
5:55 AM 48.2 °F 48.2 °F 100% 30.19 in 10.0 mi Calm Calm - N/A   Clear
6:15 AM 48.2 °F 48.2 °F 100% 30.19 in 9.0 mi NW 3.5 mph - N/A   Clear
6:35 AM 46.4 °F 46.4 °F 100% 30.19 in 8.0 mi Calm Calm - N/A   Clear
6:55 AM 46.4 °F 46.4 °F 100% 30.20 in 5.0 mi Calm Calm - N/A   Clear
7:15 AM 46.4 °F 46.4 °F 100% 30.20 in 8.0 mi Calm Calm - N/A   Clear
7:35 AM 50.0 °F 50.0 °F 100% 30.21 in 10.0 mi Calm Calm - N/A   Clear
7:55 AM 53.6 °F 53.6 °F 100% 30.22 in 10.0 mi Calm Calm - N/A   Clear
8:15 AM 55.4 °F 55.4 °F 100% 30.22 in 10.0 mi Calm Calm - N/A   Clear
8:35 AM 57.2 °F 55.4 °F 94% 30.22 in 10.0 mi Calm Calm - N/A   Clear
8:55 AM 59.0 °F 55.4 °F 88% 30.23 in 10.0 mi WNW 3.5 mph - N/A   Clear
9:15 AM 60.8 °F 57.2 °F 88% 30.23 in 10.0 mi West 3.5 mph - N/A   Clear
9:35 AM 62.6 °F 55.4 °F 77% 30.22 in 10.0 mi Calm Calm - N/A   Clear
9:55 AM 64.4 °F 55.4 °F 73% 30.23 in 10.0 mi Calm Calm - N/A   Clear
10:15 AM 66.2 °F 55.4 °F 68% 30.23 in 10.0 mi Calm Calm - N/A   Clear
10:35 AM 66.2 °F 55.4 °F 68% 30.22 in 10.0 mi Calm Calm - N/A   Clear
10:55 AM 68.0 °F 55.4 °F 64% 30.22 in 10.0 mi Calm Calm - N/A   Clear
11:15 AM 71.6 °F 55.4 °F 57% 30.21 in 10.0 mi Calm Calm - N/A   Clear
11:35 AM 71.6 °F 53.6 °F 53% 30.20 in 10.0 mi ESE 3.5 mph - N/A   Clear
11:55 AM 73.4 °F 55.4 °F 53% 30.19 in 10.0 mi Calm Calm - N/A   Clear
12:15 PM 73.4 °F 53.6 °F 50% 30.19 in 10.0 mi Calm Calm - N/A   Clear
12:35 PM 75.2 °F 53.6 °F 47% 30.18 in 10.0 mi Calm Calm - N/A   Clear
12:55 PM 75.2 °F 53.6 °F 47% 30.17 in 10.0 mi SSW 4.6 mph - N/A   Clear
1:15 PM 75.2 °F 53.6 °F 47% 30.17 in 10.0 mi West 4.6 mph - N/A   Clear
1:35 PM 77.0 °F 55.4 °F 47% 30.17 in 10.0 mi WNW 3.5 mph - N/A   Clear
1:55 PM 77.0 °F 55.4 °F 47% 30.16 in 10.0 mi NW 3.5 mph - N/A   Clear
2:15 PM 77.0 °F 55.4 °F 47% 30.15 in 10.0 mi WNW 4.6 mph - N/A   Clear
2:35 PM 78.8 °F 55.4 °F 44% 30.15 in 10.0 mi NW 3.5 mph - N/A   Clear
2:55 PM 78.8 °F 57.2 °F 47% 30.15 in 10.0 mi WNW 8.1 mph - N/A   Clear
3:15 PM 77.0 °F 55.4 °F 47% 30.15 in 10.0 mi West 9.2 mph - N/A   Clear
3:35 PM 77.0 °F 55.4 °F 47% 30.15 in 10.0 mi West 9.2 mph - N/A   Clear
3:55 PM 75.2 °F 53.6 °F 47% 30.14 in 10.0 mi West 10.4 mph - N/A   Clear
4:15 PM 75.2 °F 55.4 °F 50% 30.15 in 10.0 mi West 8.1 mph - N/A   Clear
4:55 PM 71.6 °F 55.4 °F 57% 30.14 in 10.0 mi NW 3.5 mph - N/A   Clear
5:15 PM 68.0 °F 53.6 °F 60% 30.15 in 10.0 mi NW 3.5 mph - N/A   Clear
5:35 PM 64.4 °F 53.6 °F 68% 30.15 in 10.0 mi NNW 3.5 mph - N/A   Clear
5:55 PM 62.6 °F 55.4 °F 77% 30.15 in 10.0 mi Calm Calm - N/A   Clear
6:15 PM 60.8 °F 55.4 °F 82% 30.15 in 10.0 mi North 3.5 mph - N/A   Clear
6:35 PM 59.0 °F 55.4 °F 88% 30.15 in 10.0 mi North 3.5 mph - N/A   Clear
6:55 PM 59.0 °F 55.4 °F 88% 30.15 in 10.0 mi Calm Calm - N/A   Clear
7:15 PM 57.2 °F 53.6 °F 88% 30.16 in 10.0 mi Calm Calm - N/A   Clear
7:35 PM 57.2 °F 53.6 °F 88% 30.16 in 10.0 mi Calm Calm - N/A   Clear
7:55 PM 57.2 °F 53.6 °F 88% 30.15 in 10.0 mi Calm Calm - N/A   Clear
8:15 PM 57.2 °F 55.4 °F 94% 30.15 in 10.0 mi Calm Calm - N/A   Clear
8:35 PM 55.4 °F 53.6 °F 94% 30.16 in 10.0 mi Calm Calm - N/A   Clear
8:55 PM 55.4 °F 53.6 °F 94% 30.16 in 10.0 mi Calm Calm - N/A   Clear
9:15 PM 55.4 °F 55.4 °F 100% 30.17 in 10.0 mi Calm Calm - N/A   Clear
9:35 PM 55.4 °F 55.4 °F 100% 30.17 in 10.0 mi Calm Calm - N/A   Clear
9:55 PM 55.4 °F 53.6 °F 94% 30.17 in 10.0 mi Calm Calm - N/A   Clear
10:15 PM 53.6 °F 53.6 °F 100% 30.17 in 10.0 mi Calm Calm - N/A   Clear
10:35 PM 53.6 °F 53.6 °F 100% 30.16 in 10.0 mi Calm Calm - N/A   Clear
10:55 PM 51.8 °F 51.8 °F 100% 30.16 in 10.0 mi Calm Calm - N/A   Clear